BRU619 ESSA-UMMS

Flight info

Callsign BRU619
Flight time 1h 22m
Altitude 39000
Route BABAP DCT DIGOX DCT NEREN DCT TODNA DCT RUDNI DCT PODIL/K0795F390 DCT LENOK LENOK2H
Aircraft A20N/M-SDE2E3FGHIRWXY/LB1

Departure

Time 2026-05-05 10:36
Airport Stockholm-Arlanda Airport (ESSA)

Arrival

Time 2026-05-05 11:59
Airport Minsk National Airport (UMMS)
Time Latitude Longitude Altitude Speed Heading
2026-05-05 10:25 59.65357 17.93562 137 ft 0 kts 74°
2026-05-05 10:28 59.65356 17.93556 137 ft 2 kts 74°
2026-05-05 10:28 59.65353 17.93535 137 ft 2 kts 74°
2026-05-05 10:29 59.65350 17.93513 137 ft 2 kts 74°
2026-05-05 10:29 59.65347 17.93487 137 ft 3 kts 74°
2026-05-05 10:29 59.65342 17.93453 137 ft 3 kts 64°
2026-05-05 10:29 59.65332 17.93424 137 ft 3 kts 41°
2026-05-05 10:30 59.65314 17.93402 137 ft 2 kts 359°
2026-05-05 10:30 59.65313 17.93402 137 ft 0 kts 353°
2026-05-05 10:30 59.65316 17.93401 137 ft 1 kts 353°
2026-05-05 10:31 59.65337 17.93396 137 ft 5 kts 353°
2026-05-05 10:31 59.65382 17.93377 137 ft 8 kts 346°
2026-05-05 10:31 59.65444 17.93342 137 ft 10 kts 347°
2026-05-05 10:31 59.65522 17.93360 137 ft 13 kts 30°
2026-05-05 10:32 59.65559 17.93533 137 ft 16 kts 75°
2026-05-05 10:32 59.65589 17.93766 137 ft 19 kts 75°
2026-05-05 10:32 59.65625 17.94043 137 ft 22 kts 76°
2026-05-05 10:32 59.65664 17.94354 137 ft 25 kts 75°
2026-05-05 10:33 59.65709 17.94700 137 ft 27 kts 75°
2026-05-05 10:33 59.65753 17.95046 138 ft 23 kts 64°
2026-05-05 10:33 59.65847 17.95158 138 ft 14 kts 61°
2026-05-05 10:33 59.65877 17.95350 137 ft 16 kts 76°
2026-05-05 10:34 59.65907 17.95581 138 ft 19 kts 76°
2026-05-05 10:34 59.65941 17.95856 138 ft 22 kts 76°
2026-05-05 10:34 59.65982 17.96169 138 ft 25 kts 76°
2026-05-05 10:34 59.66028 17.96519 138 ft 28 kts 76°
2026-05-05 10:35 59.66076 17.96901 138 ft 30 kts 76°
2026-05-05 10:35 59.66128 17.97311 138 ft 32 kts 76°
2026-05-05 10:35 59.66199 17.97732 138 ft 33 kts 54°
2026-05-05 10:35 59.66343 17.97897 136 ft 19 kts 319°
2026-05-05 10:36 59.66351 17.97617 137 ft 35 kts 255°
2026-05-05 10:36 59.66240 17.96701 137 ft 100 kts 256°
2026-05-05 10:36 59.66034 17.95078 320 ft 130 kts 257°
2026-05-05 10:36 59.65811 17.93337 923 ft 129 kts 257°
2026-05-05 10:37 59.65591 17.91619 1596 ft 129 kts 259°
2026-05-05 10:37 59.65370 17.89831 2139 ft 143 kts 260°
2026-05-05 10:37 59.65145 17.87781 2691 ft 162 kts 263°
2026-05-05 10:37 59.65186 17.85455 3325 ft 179 kts 277°
2026-05-05 10:38 59.65287 17.82871 3888 ft 201 kts 275°
2026-05-05 10:38 59.65376 17.79969 4517 ft 222 kts 274°
2026-05-05 10:38 59.65475 17.76741 4807 ft 245 kts 275°
2026-05-05 10:38 59.65583 17.73353 4803 ft 246 kts 275°
2026-05-05 10:39 59.65650 17.69947 4821 ft 251 kts 265°
2026-05-05 10:39 59.65096 17.66676 5352 ft 256 kts 240°
2026-05-05 10:39 59.63823 17.64205 6509 ft 261 kts 214°
2026-05-05 10:39 59.62161 17.62828 7628 ft 265 kts 204°
2026-05-05 10:40 59.60389 17.61607 8733 ft 267 kts 204°
2026-05-05 10:40 59.58624 17.60519 9804 ft 274 kts 195°
2026-05-05 10:40 59.56656 17.60533 10528 ft 301 kts 174°
2026-05-05 10:40 59.54629 17.62274 10938 ft 339 kts 152°
2026-05-05 10:41 59.52907 17.65746 11424 ft 371 kts 128°
2026-05-05 10:41 59.51707 17.70362 12185 ft 386 kts 118°
2026-05-05 10:41 59.50688 17.75325 12962 ft 397 kts 113°
2026-05-05 10:41 59.49952 17.80637 13687 ft 408 kts 105°
2026-05-05 10:42 59.49140 17.91801 15299 ft 418 kts 102°
2026-05-05 10:42 59.48681 17.97477 16047 ft 422 kts 103°
2026-05-05 10:42 59.48195 18.03214 16785 ft 427 kts 103°
2026-05-05 10:43 59.47696 18.09004 17524 ft 432 kts 104°
2026-05-05 10:43 59.47189 18.14864 18218 ft 437 kts 104°
2026-05-05 10:43 59.46675 18.20792 18868 ft 441 kts 104°
2026-05-05 10:43 59.46155 18.26766 19522 ft 445 kts 104°
2026-05-05 10:44 59.45630 18.32782 20157 ft 449 kts 104°
2026-05-05 10:44 59.45104 18.38775 20784 ft 453 kts 104°
2026-05-05 10:44 59.44564 18.44897 21450 ft 457 kts 104°
2026-05-05 10:44 59.44015 18.51083 22019 ft 462 kts 104°
2026-05-05 10:45 59.43459 18.57327 22635 ft 466 kts 104°
2026-05-05 10:45 59.42890 18.63625 23253 ft 469 kts 106°
2026-05-05 10:45 59.42016 18.69765 23781 ft 465 kts 117°
2026-05-05 10:45 59.40648 18.75463 24304 ft 458 kts 128°
2026-05-05 10:46 59.38916 18.80687 24755 ft 457 kts 131°
2026-05-05 10:46 59.37151 18.85871 25305 ft 459 kts 131°
2026-05-05 10:46 59.35372 18.91101 25777 ft 463 kts 131°
2026-05-05 10:46 59.33582 18.96365 26249 ft 466 kts 131°
2026-05-05 10:47 59.31778 19.01665 26710 ft 469 kts 131°
2026-05-05 10:47 59.29963 19.06987 27161 ft 472 kts 131°
2026-05-05 10:47 59.28130 19.12349 27599 ft 475 kts 131°
2026-05-05 10:47 59.26284 19.17738 28024 ft 478 kts 131°
2026-05-05 10:48 59.24424 19.23156 28434 ft 481 kts 132°
2026-05-05 10:48 59.22575 19.28526 28822 ft 484 kts 132°
2026-05-05 10:48 59.20691 19.33988 29210 ft 487 kts 132°
2026-05-05 10:48 59.18790 19.39484 29589 ft 490 kts 132°
2026-05-05 10:49 59.16876 19.45006 29972 ft 492 kts 132°
2026-05-05 10:49 59.14953 19.50543 30309 ft 495 kts 132°
2026-05-05 10:49 59.13017 19.56102 30642 ft 496 kts 132°
2026-05-05 10:49 59.11036 19.61578 31058 ft 492 kts 136°
2026-05-05 10:50 59.08907 19.66783 31453 ft 492 kts 137°
2026-05-05 10:50 59.06778 19.71986 31902 ft 491 kts 136°
2026-05-05 10:50 59.04656 19.77172 32353 ft 490 kts 136°
2026-05-05 10:50 59.02537 19.82340 32790 ft 489 kts 137°
2026-05-05 10:51 59.00421 19.87488 33215 ft 488 kts 137°
2026-05-05 10:51 58.98306 19.92620 33629 ft 487 kts 137°
2026-05-05 10:51 58.96190 19.97740 34012 ft 486 kts 137°
2026-05-05 10:51 58.94077 20.02842 34349 ft 485 kts 137°
2026-05-05 10:52 58.91964 20.07932 34637 ft 484 kts 136°
2026-05-05 10:52 58.89854 20.13002 34967 ft 483 kts 136°
2026-05-05 10:52 58.87744 20.18061 35211 ft 483 kts 136°
2026-05-05 10:52 58.85664 20.23037 35542 ft 482 kts 136°
2026-05-05 10:53 58.83554 20.28075 35816 ft 482 kts 136°
2026-05-05 10:53 58.81446 20.33098 36080 ft 482 kts 136°
2026-05-05 10:53 58.79331 20.38127 36339 ft 482 kts 136°
2026-05-05 10:53 58.77217 20.43147 36593 ft 482 kts 135°
2026-05-05 10:54 58.75099 20.48162 36851 ft 482 kts 135°
2026-05-05 10:54 58.72981 20.53170 37093 ft 482 kts 135°
2026-05-05 10:54 58.70864 20.58162 37338 ft 481 kts 135°
2026-05-05 10:54 58.68755 20.63127 37683 ft 478 kts 135°
2026-05-05 10:55 58.66648 20.68076 37901 ft 479 kts 135°
2026-05-05 10:55 58.64493 20.72936 38110 ft 476 kts 139°
2026-05-05 10:55 58.62139 20.77353 38309 ft 471 kts 145°
2026-05-05 10:55 58.59593 20.81252 38495 ft 466 kts 151°
2026-05-05 10:56 58.56904 20.84696 38650 ft 464 kts 153°
2026-05-05 10:56 58.54203 20.88089 38804 ft 464 kts 153°
2026-05-05 10:56 58.51506 20.91493 38851 ft 464 kts 153°
2026-05-05 10:57 58.46128 20.98290 38853 ft 463 kts 153°
2026-05-05 10:57 58.40789 21.05022 38852 ft 463 kts 152°
2026-05-05 10:58 58.35408 21.11780 38856 ft 463 kts 152°
2026-05-05 10:58 58.30026 21.18515 38853 ft 463 kts 153°
2026-05-05 10:59 58.24635 21.25235 38863 ft 463 kts 153°
2026-05-05 10:59 58.19247 21.31927 38859 ft 463 kts 153°
2026-05-05 11:00 58.13854 21.38603 38870 ft 463 kts 153°
2026-05-05 11:00 58.08482 21.45230 38868 ft 460 kts 153°
2026-05-05 11:01 58.03118 21.51821 38865 ft 459 kts 153°
2026-05-05 11:01 57.97875 21.58752 38868 ft 463 kts 148°
2026-05-05 11:02 57.92830 21.66176 38867 ft 463 kts 148°
2026-05-05 11:02 57.87745 21.73618 38870 ft 463 kts 148°
2026-05-05 11:03 57.82654 21.81015 38875 ft 462 kts 148°
2026-05-05 11:03 57.77563 21.88379 38878 ft 462 kts 148°
2026-05-05 11:04 57.72470 21.95717 38878 ft 462 kts 148°
2026-05-05 11:04 57.67373 22.03035 38877 ft 462 kts 148°
2026-05-05 11:05 57.62283 22.10316 38881 ft 461 kts 148°
2026-05-05 11:05 57.57188 22.17578 38883 ft 461 kts 148°
2026-05-05 11:06 57.52094 22.24812 38868 ft 460 kts 148°
2026-05-05 11:06 57.46998 22.32024 38870 ft 460 kts 148°
2026-05-05 11:07 57.41907 22.39236 38861 ft 461 kts 146°
2026-05-05 11:07 57.37256 22.47434 38860 ft 467 kts 139°
2026-05-05 11:08 57.32794 22.56200 38855 ft 467 kts 139°
2026-05-05 11:08 57.28328 22.64918 38853 ft 467 kts 139°
2026-05-05 11:09 57.23851 22.73600 38845 ft 466 kts 139°
2026-05-05 11:09 57.20128 22.80782 38854 ft 466 kts 139°
2026-05-05 11:10 57.15643 22.89402 38854 ft 466 kts 139°
2026-05-05 11:10 57.11151 22.98003 38852 ft 466 kts 139°
2026-05-05 11:11 57.06653 23.06582 38847 ft 465 kts 139°
2026-05-05 11:11 57.02160 23.15123 38856 ft 465 kts 139°
2026-05-05 11:12 56.97662 23.23638 38846 ft 465 kts 139°
2026-05-05 11:12 56.93157 23.32138 38846 ft 465 kts 140°
2026-05-05 11:13 56.88650 23.40610 38830 ft 465 kts 140°
2026-05-05 11:13 56.84165 23.49009 38834 ft 464 kts 140°
2026-05-05 11:14 56.79646 23.57440 38828 ft 464 kts 140°
2026-05-05 11:14 56.75133 23.65832 38836 ft 463 kts 140°
2026-05-05 11:15 56.70615 23.74199 38836 ft 463 kts 140°
2026-05-05 11:15 56.66094 23.82542 38840 ft 463 kts 140°
2026-05-05 11:16 56.61570 23.90861 38837 ft 463 kts 140°
2026-05-05 11:16 56.57040 23.99161 38833 ft 463 kts 140°
2026-05-05 11:17 56.52507 24.07438 38835 ft 463 kts 140°
2026-05-05 11:17 56.47970 24.15691 38835 ft 463 kts 140°
2026-05-05 11:18 56.43456 24.23872 38841 ft 462 kts 140°
2026-05-05 11:18 56.38910 24.32082 38842 ft 462 kts 140°
2026-05-05 11:19 56.34361 24.40268 38851 ft 462 kts 140°
2026-05-05 11:19 56.29808 24.48433 38851 ft 462 kts 140°
2026-05-05 11:20 56.25252 24.56573 38851 ft 462 kts 141°
2026-05-05 11:20 56.20690 24.64697 38851 ft 462 kts 141°
2026-05-05 11:21 56.16122 24.72802 38848 ft 461 kts 141°
2026-05-05 11:21 56.11552 24.80881 38851 ft 461 kts 141°
2026-05-05 11:22 56.07009 24.88884 38851 ft 461 kts 141°
2026-05-05 11:22 56.02427 24.96929 38854 ft 461 kts 141°
2026-05-05 11:23 55.97841 25.04952 38855 ft 461 kts 141°
2026-05-05 11:23 55.93249 25.12957 38849 ft 461 kts 141°
2026-05-05 11:24 55.88654 25.20939 38855 ft 461 kts 141°
2026-05-05 11:24 55.84048 25.28911 38848 ft 461 kts 141°
2026-05-05 11:25 55.79438 25.36861 38857 ft 462 kts 141°
2026-05-05 11:25 55.74821 25.44802 38860 ft 462 kts 141°
2026-05-05 11:26 55.70186 25.52742 38859 ft 462 kts 141°
2026-05-05 11:26 55.65584 25.60600 38870 ft 463 kts 141°
2026-05-05 11:27 55.60939 25.68503 38879 ft 463 kts 141°
2026-05-05 11:27 55.56289 25.76387 38880 ft 464 kts 141°
2026-05-05 11:28 55.51628 25.84263 38877 ft 464 kts 141°
2026-05-05 11:28 55.46967 25.92112 38870 ft 461 kts 141°
2026-05-05 11:29 55.42331 25.99892 38874 ft 461 kts 141°
2026-05-05 11:29 55.37678 26.07670 38863 ft 461 kts 141°
2026-05-05 11:30 55.33014 26.15440 38873 ft 462 kts 141°
2026-05-05 11:30 55.28347 26.23193 38872 ft 462 kts 141°
2026-05-05 11:31 55.23682 26.30916 38872 ft 461 kts 141°
2026-05-05 11:31 55.19045 26.38574 38880 ft 461 kts 141°
2026-05-05 11:32 55.14377 26.46263 38870 ft 461 kts 141°
2026-05-05 11:32 55.09731 26.53995 38874 ft 461 kts 140°
2026-05-05 11:33 55.05114 26.61781 38871 ft 461 kts 140°
2026-05-05 11:33 55.00496 26.69528 38877 ft 460 kts 140°
2026-05-05 11:34 54.95874 26.77246 38874 ft 460 kts 140°
2026-05-05 11:34 54.91248 26.84939 38538 ft 459 kts 140°
2026-05-05 11:34 54.88931 26.88781 37892 ft 461 kts 140°
2026-05-05 11:35 54.86610 26.92626 37236 ft 461 kts 140°
2026-05-05 11:35 54.84293 26.96458 36567 ft 460 kts 140°
2026-05-05 11:35 54.81979 27.00280 35885 ft 459 kts 140°
2026-05-05 11:35 54.79700 27.04037 35225 ft 458 kts 140°
2026-05-05 11:36 54.77387 27.07842 34542 ft 459 kts 141°
2026-05-05 11:36 54.75064 27.11656 33727 ft 462 kts 141°
2026-05-05 11:36 54.72723 27.15494 32931 ft 463 kts 141°
2026-05-05 11:36 54.70380 27.19329 32108 ft 465 kts 141°
2026-05-05 11:37 54.68027 27.23175 31270 ft 466 kts 141°
2026-05-05 11:37 54.65676 27.27011 30674 ft 463 kts 141°
2026-05-05 11:37 54.63345 27.30812 30065 ft 459 kts 141°
2026-05-05 11:37 54.61028 27.34582 29403 ft 456 kts 141°
2026-05-05 11:38 54.58736 27.38307 28796 ft 450 kts 141°
2026-05-05 11:38 54.56463 27.41991 28194 ft 446 kts 141°
2026-05-05 11:38 54.54127 27.45414 27598 ft 438 kts 147°
2026-05-05 11:38 54.51673 27.48463 27017 ft 433 kts 148°
2026-05-05 11:39 54.49237 27.51477 26427 ft 429 kts 148°
2026-05-05 11:39 54.46857 27.54426 25854 ft 426 kts 148°
2026-05-05 11:39 54.44467 27.57385 25275 ft 422 kts 148°
2026-05-05 11:39 54.42091 27.60321 24695 ft 419 kts 148°
2026-05-05 11:40 54.39730 27.63237 24114 ft 417 kts 148°
2026-05-05 11:40 54.37380 27.66135 23516 ft 415 kts 148°
2026-05-05 11:40 54.35043 27.69013 22901 ft 411 kts 148°
2026-05-05 11:40 54.32736 27.71851 22338 ft 406 kts 148°
2026-05-05 11:41 54.30454 27.74655 21764 ft 402 kts 148°
2026-05-05 11:41 54.28189 27.77434 21200 ft 398 kts 148°
2026-05-05 11:41 54.25948 27.80179 20635 ft 395 kts 148°
2026-05-05 11:41 54.23722 27.82901 20075 ft 392 kts 148°
2026-05-05 11:42 54.21506 27.85607 19378 ft 393 kts 148°
2026-05-05 11:42 54.19291 27.88307 18876 ft 389 kts 148°
2026-05-05 11:42 54.17100 27.90977 18290 ft 387 kts 148°
2026-05-05 11:42 54.14918 27.93631 17730 ft 383 kts 148°
2026-05-05 11:43 54.12803 27.96354 17183 ft 380 kts 143°
2026-05-05 11:43 54.10840 27.99250 16649 ft 377 kts 143°
2026-05-05 11:43 54.08869 28.02163 16100 ft 373 kts 143°
2026-05-05 11:43 54.06920 28.05036 15576 ft 369 kts 143°
2026-05-05 11:44 54.04981 28.07885 15046 ft 366 kts 143°
2026-05-05 11:44 54.03057 28.10706 14514 ft 364 kts 143°
2026-05-05 11:44 54.01148 28.13500 13983 ft 361 kts 143°
2026-05-05 11:44 53.99247 28.16279 13433 ft 359 kts 143°
2026-05-05 11:45 53.97364 28.19051 12906 ft 356 kts 142°
2026-05-05 11:45 53.95517 28.21823 12391 ft 352 kts 142°
2026-05-05 11:45 53.93693 28.24574 11880 ft 349 kts 142°
2026-05-05 11:45 53.91883 28.27297 11283 ft 348 kts 142°
2026-05-05 11:46 53.90065 28.30020 10728 ft 348 kts 142°
2026-05-05 11:46 53.88256 28.32727 10245 ft 344 kts 142°
2026-05-05 11:46 53.86519 28.35325 10087 ft 331 kts 142°
2026-05-05 11:46 53.84831 28.37837 9987 ft 316 kts 142°
2026-05-05 11:47 53.83211 28.40236 9889 ft 302 kts 142°
2026-05-05 11:47 53.81659 28.42532 9662 ft 293 kts 142°
2026-05-05 11:47 53.80125 28.44794 9234 ft 292 kts 142°
2026-05-05 11:47 53.78598 28.47037 8822 ft 290 kts 142°
2026-05-05 11:48 53.75576 28.51465 8015 ft 286 kts 143°
2026-05-05 11:48 53.74074 28.53659 7642 ft 284 kts 143°
2026-05-05 11:48 53.72505 28.55633 7252 ft 278 kts 158°
2026-05-05 11:49 53.70669 28.56331 6871 ft 268 kts 185°
2026-05-05 11:49 53.68901 28.55579 6494 ft 261 kts 210°
2026-05-05 11:49 53.67529 28.53661 6087 ft 257 kts 230°
2026-05-05 11:49 53.66366 28.51376 5713 ft 255 kts 230°
2026-05-05 11:50 53.65237 28.49162 5589 ft 242 kts 230°
2026-05-05 11:50 53.64206 28.47012 5485 ft 229 kts 240°
2026-05-05 11:50 53.63696 28.44640 5327 ft 205 kts 262°
2026-05-05 11:50 53.63771 28.42420 5217 ft 181 kts 282°
2026-05-05 11:51 53.64243 28.40567 4941 ft 170 kts 299°
2026-05-05 11:51 53.65045 28.39049 4359 ft 178 kts 315°
2026-05-05 11:51 53.65994 28.37690 3909 ft 179 kts 315°
2026-05-05 11:51 53.66932 28.36330 3517 ft 177 kts 315°
2026-05-05 11:52 53.67904 28.35111 3231 ft 167 kts 322°
2026-05-05 11:52 53.68827 28.34065 3008 ft 155 kts 320°
2026-05-05 11:52 53.69760 28.32978 3006 ft 165 kts 321°
2026-05-05 11:52 53.70690 28.31910 2995 ft 162 kts 321°
2026-05-05 11:53 53.71624 28.30836 2977 ft 158 kts 319°
2026-05-05 11:53 53.72506 28.29694 2989 ft 162 kts 316°
2026-05-05 11:53 53.73378 28.28473 3004 ft 167 kts 315°
2026-05-05 11:53 53.74232 28.27236 2978 ft 157 kts 313°
2026-05-05 11:54 53.75076 28.26001 3000 ft 162 kts 315°
2026-05-05 11:54 53.75920 28.24769 2994 ft 161 kts 314°
2026-05-05 11:54 53.76751 28.23550 2986 ft 150 kts 314°
2026-05-05 11:54 53.77482 28.22490 2972 ft 132 kts 315°
2026-05-05 11:55 53.78199 28.21426 2988 ft 138 kts 315°
2026-05-05 11:55 53.78916 28.20379 2927 ft 137 kts 315°
2026-05-05 11:55 53.79636 28.19325 2761 ft 136 kts 315°
2026-05-05 11:55 53.80341 28.18294 2596 ft 132 kts 313°
2026-05-05 11:56 53.81024 28.17291 2436 ft 133 kts 313°
2026-05-05 11:56 53.81719 28.16270 2258 ft 133 kts 314°
2026-05-05 11:56 53.82421 28.15242 2081 ft 133 kts 315°
2026-05-05 11:56 53.83112 28.14227 1911 ft 132 kts 315°
2026-05-05 11:57 53.83798 28.13220 1734 ft 129 kts 313°
2026-05-05 11:57 53.84482 28.12216 1581 ft 130 kts 313°
2026-05-05 11:57 53.85164 28.11214 1409 ft 131 kts 313°
2026-05-05 11:57 53.85856 28.10197 1244 ft 133 kts 314°
2026-05-05 11:58 53.86552 28.09166 1056 ft 134 kts 315°
2026-05-05 11:58 53.87247 28.08148 886 ft 130 kts 316°
2026-05-05 11:58 53.87936 28.07135 734 ft 132 kts 316°
2026-05-05 11:58 53.88615 28.06146 634 ft 114 kts 319°
2026-05-05 11:59 53.89120 28.05401 634 ft 87 kts 320°
2026-05-05 11:59 53.89540 28.04784 633 ft 59 kts 318°
2026-05-05 11:59 53.89734 28.04382 639 ft 41 kts 294°
2026-05-05 11:59 53.89752 28.04154 637 ft 16 kts 226°
2026-05-05 12:00 53.89676 28.04176 638 ft 12 kts 154°
2026-05-05 12:00 53.89606 28.04281 638 ft 15 kts 138°
2026-05-05 12:00 53.89518 28.04413 635 ft 18 kts 139°
2026-05-05 12:00 53.89413 28.04567 635 ft 22 kts 139°
2026-05-05 12:01 53.89304 28.04600 639 ft 18 kts 226°
2026-05-05 12:01 53.89218 28.04433 635 ft 20 kts 230°
2026-05-05 12:01 53.89105 28.04407 635 ft 17 kts 179°
2026-05-05 12:01 53.89021 28.04291 642 ft 17 kts 227°
2026-05-05 12:02 53.88937 28.04133 635 ft 19 kts 228°
2026-05-05 12:02 53.88877 28.03943 635 ft 19 kts 286°
2026-05-05 12:02 53.88923 28.03744 635 ft 15 kts 259°
2026-05-05 12:02 53.88866 28.03641 635 ft 13 kts 227°
2026-05-05 12:03 53.88806 28.03508 637 ft 15 kts 258°
2026-05-05 12:03 53.88787 28.03323 635 ft 17 kts 268°
2026-05-05 12:03 53.88843 28.03230 635 ft 12 kts
2026-05-05 12:03 53.88860 28.03234 635 ft 0 kts